Latest Weather Observations for Fawkner Beacon

IDV60801

Issued at 2:32 am EST Sunday 24 July 2016 (issued every 30 minutes, with the page automatically refreshed every 10 minutes)

About weather observations | Map of weather stations | Latest weather observations for VIC | Other Formats
Station Details ID: 086376 Name: FAWKNER BEACON Lat: -37.91 Lon: 144.93 Height: 17.0 m
Data from the previous 72 hours. | See also: Recent months for locations in Victoria
Date/Time
EST
Temp
°C
App
Temp
°C
Dew
Point
°C
Rel
Hum
%
Delta-T
°C
Wind Press
QNH
hPa
Press
MSL
hPa
Rain since
9am
mm
Dir  Spd
km/h
Gust
km/h
Spd
kts
Gust
kts
24/02:30am - - - - - NW 28 33 15 18 - - -
24/02:00am - - - - - NW 24 30 13 16 - - -
24/01:30am - - - - - NNW 20 24 11 13 - - -
24/01:00am - - - - - NW 24 28 13 15 - - -
24/12:30am - - - - - NW 22 26 12 14 - - -
24/12:00am - - - - - NW 26 32 14 17 - - -
 
Date/Time
EST
Temp
°C
App
Temp
°C
Dew
Point
°C
Rel
Hum
%
Delta-T
°C
Wind Press
QNH
hPa
Press
MSL
hPa
Rain since
9am
mm
Dir  Spd
km/h
Gust
km/h
Spd
kts
Gust
kts
23/11:30pm - - - - - WNW 26 30 14 16 - - -
23/11:00pm - - - - - NW 32 35 17 19 - - -
23/10:30pm - - - - - NW 28 32 15 17 - - -
23/10:00pm - - - - - WNW 32 41 17 22 - - -
23/09:30pm - - - - - WNW 33 41 18 22 - - -
23/09:00pm - - - - - WNW 32 39 17 21 - - -
23/08:30pm - - - - - WNW 39 46 21 25 - - -
23/08:00pm - - - - - WNW 33 41 18 22 - - -
23/07:30pm - - - - - WNW 37 46 20 25 - - -
23/07:00pm - - - - - WNW 37 44 20 24 - - -
23/06:30pm - - - - - W 30 35 16 19 - - -
23/06:00pm - - - - - W 35 44 19 24 - - -
23/05:30pm - - - - - W 35 46 19 25 - - -
23/05:00pm - - - - - W 39 46 21 25 - - -
23/04:30pm - - - - - W 35 46 19 25 - - -
23/04:00pm - - - - - W 37 43 20 23 - - -
23/03:30pm - - - - - W 37 44 20 24 - - -
23/03:03pm - - - - - W 50 69 27 37 - - -
23/03:00pm - - - - - W 50 69 27 37 - - -
23/02:55pm - - - - - W 43 69 23 37 - - -
23/02:54pm - - - - - W 41 67 22 36 - - -
23/02:30pm - - - - - W 43 57 23 31 - - -
23/02:11pm - - - - - WSW 33 52 18 28 - - -
23/02:00pm - - - - - W 35 44 19 24 - - -
23/01:30pm - - - - - W 50 61 27 33 - - -
23/01:00pm - - - - - W 43 52 23 28 - - -
23/12:30pm - - - - - W 43 52 23 28 - - -
23/12:09pm - - - - - WNW 39 57 21 31 - - -
23/12:00pm - - - - - W 37 44 20 24 - - -
23/11:30am - - - - - W 44 52 24 28 - - -
23/11:00am - - - - - W 44 54 24 29 - - -
23/10:30am - - - - - W 43 50 23 27 - - -
23/10:00am - - - - - W 50 59 27 32 - - -
23/09:30am - - - - - W 35 43 19 23 - - -
23/09:00am - - - - - WNW 35 43 19 23 - - -
23/08:30am - - - - - W 41 50 22 27 - - -
23/08:00am - - - - - W 39 48 21 26 - - -
23/07:30am - - - - - W 43 52 23 28 - - -
23/07:00am - - - - - W 50 63 27 34 - - -
23/06:30am - - - - - W 50 59 27 32 - - -
23/06:00am - - - - - W 57 72 31 39 - - -
23/05:30am - - - - - W 48 67 26 36 - - -
23/05:28am - - - - - W 46 67 25 36 - - -
23/05:00am - - - - - W 52 63 28 34 - - -
23/04:30am - - - - - W 50 63 27 34 - - -
23/04:00am - - - - - W 48 61 26 33 - - -
23/03:30am - - - - - W 50 61 27 33 - - -
23/03:00am - - - - - W 61 80 33 43 - - -
23/02:31am - - - - - W 65 83 35 45 - - -
23/02:30am - - - - - WNW 65 82 35 44 - - -
23/02:06am - - - - - WNW 59 78 32 42 - - -
23/02:00am - - - - - WNW 57 70 31 38 - - -
23/01:30am - - - - - NW 52 63 28 34 - - -
23/01:03am - - - - - NW 57 76 31 41 - - -
23/01:00am - - - - - NW 59 76 32 41 - - -
23/12:54am - - - - - NW 57 76 31 41 - - -
23/12:44am - - - - - NW 44 67 24 36 - - -
23/12:30am - - - - - NW 39 46 21 25 - - -
23/12:00am - - - - - WNW 44 54 24 29 - - -
 
Date/Time
EST
Temp
°C
App
Temp
°C
Dew
Point
°C
Rel
Hum
%
Delta-T
°C
Wind Press
QNH
hPa
Press
MSL
hPa
Rain since
9am
mm
Dir  Spd
km/h
Gust
km/h
Spd
kts
Gust
kts
22/11:30pm - - - - - WNW 54 78 29 42 - - -
22/11:28pm - - - - - WNW 50 78 27 42 - - -
22/11:26pm - - - - - W 46 78 25 42 - - -
22/11:21pm - - - - - W 35 54 19 29 - - -
22/11:00pm - - - - - WNW 32 39 17 21 - - -
22/10:30pm - - - - - WNW 37 46 20 25 - - -
22/10:09pm - - - - - WNW 35 43 19 23 - - -
22/10:00pm - - - - - NW 33 43 18 23 - - -
22/09:49pm - - - - - NNW 33 46 18 25 - - -
22/09:30pm - - - - - N 26 30 14 16 - - -
22/09:00pm - - - - - NNW 24 30 13 16 - - -
22/08:30pm - - - - - NNW 19 24 10 13 - - -
22/08:00pm - - - - - NW 15 17 8 9 - - -
22/07:30pm - - - - - NNW 15 20 8 11 - - -
22/07:00pm - - - - - WNW 26 30 14 16 - - -
22/06:30pm - - - - - NW 28 33 15 18 - - -
22/06:27pm - - - - - NW 28 33 15 18 - - -
22/06:00pm - - - - - W 37 46 20 25 - - -
22/05:30pm - - - - - WNW 30 35 16 19 - - -
22/05:00pm - - - - - NW 35 48 19 26 - - -
22/04:30pm - - - - - NW 33 41 18 22 - - -
22/04:00pm - - - - - NW 33 39 18 21 - - -
22/03:30pm - - - - - WNW 35 46 19 25 - - -
22/03:00pm - - - - - WNW 43 50 23 27 - - -
22/02:30pm - - - - - W 57 70 31 38 - - -
22/02:08pm - - - - - W 54 96 29 52 - - -
22/02:05pm - - - - - WNW 50 69 27 37 - - -
22/02:00pm - - - - - WNW 50 63 27 34 - - -
22/01:30pm - - - - - NW 52 63 28 34 - - -
22/01:08pm - - - - - NW 48 67 26 36 - - -
22/01:00pm - - - - - NW 48 63 26 34 - - -
22/12:30pm - - - - - NW 50 67 27 36 - - -
22/12:24pm - - - - - NW 46 67 25 36 - - -
22/12:00pm - - - - - NW 50 63 27 34 - - -
22/11:30am - - - - - NW 48 61 26 33 - - -
22/11:05am - - - - - NW 46 65 25 35 - - -
22/11:00am - - - - - NW 43 54 23 29 - - -
22/10:30am - - - - - NW 48 61 26 33 - - -
22/10:00am - - - - - NW 48 65 26 35 - - -
22/09:38am - - - - - NW 46 67 25 36 - - -
22/09:30am - - - - - NW 43 52 23 28 - - -
22/09:00am - - - - - NW 37 44 20 24 - - -
22/08:30am - - - - - NNW 37 43 20 23 - - -
22/08:00am - - - - - NNW 35 43 19 23 - - -
22/07:30am - - - - - NNW 33 44 18 24 - - -
22/07:29am - - - - - NNW 33 44 18 24 - - -
22/07:00am - - - - - N 33 43 18 23 - - -
22/06:30am - - - - - N 37 46 20 25 - - -
22/06:00am - - - - - N 43 50 23 27 - - -
22/05:30am - - - - - N 48 57 26 31 - - -
22/05:00am - - - - - N 46 54 25 29 - - -
22/04:30am - - - - - N 48 63 26 34 - - -
22/04:00am - - - - - N 54 65 29 35 - - -
22/03:35am - - - - - N 59 78 32 42 - - -
22/03:30am - - - - - N 61 76 33 41 - - -
22/03:00am - - - - - N 59 78 32 42 - - -
22/02:30am - - - - - N 63 83 34 45 - - -
22/02:00am - - - - - N 59 80 32 43 - - -
22/01:34am - - - - - N 57 78 31 42 - - -
22/01:30am - - - - - N 56 72 30 39 - - -
22/01:01am - - - - - N 54 72 29 39 - - -
22/01:00am - - - - - N 54 69 29 37 - - -
22/12:30am - - - - - N 43 52 23 28 - - -
22/12:00am - - - - - N 44 54 24 29 - - -
 
Date/Time
EST
Temp
°C
App
Temp
°C
Dew
Point
°C
Rel
Hum
%
Delta-T
°C
Wind Press
QNH
hPa
Press
MSL
hPa
Rain since
9am
mm
Dir  Spd
km/h
Gust
km/h
Spd
kts
Gust
kts
21/11:30pm - - - - - N 46 57 25 31 - - -
21/11:00pm - - - - - N 54 69 29 37 - - -
21/10:53pm - - - - - N 50 69 27 37 - - -
21/10:30pm - - - - - N 52 67 28 36 - - -
21/10:00pm - - - - - N 52 65 28 35 - - -
21/09:30pm - - - - - N 48 61 26 33 - - -
21/09:00pm - - - - - N 46 61 25 33 - - -
21/08:30pm - - - - - N 41 46 22 25 - - -
21/08:00pm - - - - - N 41 50 22 27 - - -
21/07:30pm - - - - - N 37 44 20 24 - - -
21/07:00pm - - - - - N 43 48 23 26 - - -
21/06:30pm - - - - - N 39 44 21 24 - - -
21/06:00pm - - - - - N 41 44 22 24 - - -
21/05:30pm - - - - - N 41 44 22 24 - - -
21/05:00pm - - - - - N 41 48 22 26 - - -
21/04:30pm - - - - - N 43 48 23 26 - - -
21/04:00pm - - - - - N 39 44 21 24 - - -
21/03:30pm - - - - - N 39 43 21 23 - - -
21/03:00pm - - - - - N 28 33 15 18 - - -
21/02:30pm - - - - - N 32 35 17 19 - - -
21/02:00pm - - - - - N 30 35 16 19 - - -
21/01:30pm - - - - - N 37 43 20 23 - - -
21/01:00pm - - - - - N 30 33 16 18 - - -
21/12:30pm - - - - - N 26 30 14 16 - - -
21/12:00pm - - - - - N 24 26 13 14 - - -
21/11:30am - - - - - N 19 22 10 12 - - -
21/11:00am - - - - - NNE 15 17 8 9 - - -
21/10:30am - - - - - NNE 15 20 8 11 - - -
21/10:00am - - - - - NNE 20 24 11 13 - - -
21/09:30am - - - - - NE 15 20 8 11 - - -
21/09:00am - - - - - NNE 19 24 10 13 - - -
21/08:30am - - - - - N 19 24 10 13 - - -
21/08:00am - - - - - NNE 11 13 6 7 - - -
21/07:30am - - - - - NNE 22 24 12 13 - - -
21/07:00am - - - - - NNE 13 17 7 9 - - -
21/06:30am - - - - - NNE 11 13 6 7 - - -
21/06:00am - - - - - NNE 11 17 6 9 - - -
21/05:30am - - - - - N 11 15 6 8 - - -
21/05:00am - - - - - N 9 13 5 7 - - -
21/04:30am - - - - - N 4 7 2 4 - - -
21/04:00am - - - - - NNW 4 7 2 4 - - -
21/03:30am - - - - - NNW 9 11 5 6 - - -
21/03:00am - - - - - NW 6 9 3 5 - - -

Other Formats:

Comma delimited format used in spreadsheet applications
http://www.bom.gov.au/fwo/IDV60801/IDV60801.95872.axf

JavaScript Object Notation format (JSON) in row-major order
http://www.bom.gov.au/fwo/IDV60801/IDV60801.95872.json